Regional Weather Roundup
Issued by NWS

Home | Current Version | Previous Version | Graphics & Text | Print | Product List | Glossary On
Versions: 1 2 3 4 5 6 7 8 9 10 11 12 13 14 15 16 17 18 19 20 21 22 23 24 25 26 27 28 29 30 31 32 33 34 35 36 37 38 39 40 41 42 43 44 45 46 47 48 49 50
000
ASUS43 KLOT 031712
RWRIL

ILLINOIS REGIONAL WEATHER ROUNDUP
NATIONAL WEATHER SERVICE CHICAGO/ROMEOVILLE IL
1100 AM CST SAT DEC 03 2016

NOTE: "FAIR" INDICATES FEW OR NO CLOUDS BELOW 12,000 FEET WITH NO
SIGNIFICANT WEATHER AND/OR OBSTRUCTIONS TO VISIBILITY.

* THESE STATIONS ARE NOT UNDER NWS QUALITY CONTROL. THEY ALSO MAY NOT
  REPORT WEATHER SUCH AS PRECIPITATION OR FOG.

ILZ001-002-007-009-015-016-024-031800-
NORTHWEST ILLINOIS

CITY           SKY/WX    TMP DP  RH WIND       PRES   REMARKS
MOLINE         CLOUDY    37  24  59 W6        30.36F WCI  32
STERLING*      PTSUNNY   35  26  69 W3        30.36F
SAVANNA*       CLOUDY    34  25  68 CALM      30.34S
$$

ILZ003-004-008-010-011-017-018-031800-
NORTH CENTRAL ILLINOIS

CITY           SKY/WX    TMP DP  RH WIND       PRES   REMARKS
ROCKFORD       CLOUDY    32  24  72 NW8       30.36S WCI  25
FREEPORT*      CLOUDY    32  23  70 CALM      30.35R
ROCHELLE*      CLOUDY    32  25  74 NW6       30.35F WCI  26
DE KALB*       CLOUDY    32  25  76 NW8       30.34F WCI  24
$$

ILZ005-006-012>014-019>023-031800-
NORTHEAST ILLINOIS

CITY           SKY/WX    TMP DP  RH WIND       PRES   REMARKS
CHICAGO-OHARE  CLOUDY    32  22  66 W6        30.33S WCI  26
CHICAGO-MIDWAY CLOUDY    34  21  59 W8        30.35S WCI  27
AURORA         CLOUDY    33  25  72 NW8       30.35F WCI  26
LANSING*       CLOUDY    34  26  73 W5        30.34S WCI  30
JOLIET*        CLOUDY    34  25  70 W5        30.36S WCI  30
WAUKEGAN       CLOUDY    33  24  69 CALM      30.32S
DUPAGE AIRPORT CLOUDY    32  23  69 W8        30.34S WCI  25
KANKAKEE*      CLOUDY    34  26  71 W6        30.37R WCI  29
WHEELING       CLOUDY    33  22  63 SW5       30.35R WCI  29
MORRIS*        CLOUDY    33  26  75 W7        30.35S WCI  27
ROMEOVILLE*    CLOUDY    33  27  80 NW6       30.35S WCI  27
NORTHERLY ISL    N/A     34  22  61 NW6         N/A  WCI  29
$$

LMZ740>746-031800-
SOUTHERN LAKE MICHIGAN

STATION/POSITION SKY/WX   TEMP    WIND        PRES    VSBY  WAVE
                          AIR SEA DIR/SP/G                  HT/PER
                          (F)     (DEG/KT/KT) (MB)    (MI)  (FT/S)
SOUTHERN BUOY              34 49  290/  6/  8 1026.7F         1/ 3
HARRISON CRIB              33     350/  4/  5   N/A
BURNHAM HARBOR             34     230/  4/  7   N/A
CALUMET HARBOR             34     230/  4/  5 1026.9F
BURNS HARBOR               35     270/  7/  9 1027.8R
MICHIGAN CITY              35     210/  4/  8   N/A
$$

ILZ025>027-034>036-040-047-049-050-058-095>099-031800-
WEST-CENTRAL ILLINOIS

CITY           SKY/WX    TMP DP  RH WIND       PRES   REMARKS
QUINCY         CLOUDY    40  32  73 E8        30.36F
GALESBURG*     CLOUDY    35  26  70 E3        30.39R
MACOMB*        CLOUDY    36  29  75 E3        30.41F
JACKSONVILLE*  CLOUDY    38  31  77 E6        30.38S WCI  33
PITTSFIELD*    MOSUNNY   39  34  82 E6        30.38S WCI  34
$$

ILZ028>032-037-038-041>044-048-051>054-059>061-031800-
CENTRAL ILLINOIS

CITY           SKY/WX    TMP DP  RH WIND       PRES   REMARKS
PONTIAC        CLOUDY    34  30  84 W5        30.40R WCI  30
BLOOMINGTON    CLOUDY    35  26  69 NW8       30.36F WCI  29
DECATUR        CLOUDY    38  29  70 CALM      30.38F
PEORIA         CLOUDY    36  27  69 NE3       30.39S
LACON*         CLOUDY    33  26  73 CALM      30.39R
LINCOLN*       CLOUDY    37  29  73 N3        30.39F
SPRINGFIELD    MOSUNNY   40  29  64 E5        30.39F
TAYLORVILLE    CLOUDY    38  31  74 E3        30.39R
$$

ILZ033-039-045-046-055>057-062-063-031800-
EAST-CENTRAL ILLINOIS

CITY           SKY/WX    TMP DP  RH WIND       PRES   REMARKS
CHAMPAIGN      CLOUDY    37  26  64 NW7       30.38F WCI  32
RANTOUL*       CLOUDY    37  29  74 NW7       30.37F WCI  31
MATTOON        CLOUDY    39  28  64 CALM      30.37F
PARIS*         MOSUNNY   37  29  74 CALM      30.39R
$$

ILZ079-100>102-031800-
SOUTHWEST ILLINOIS

CITY           SKY/WX    TMP DP  RH WIND       PRES   REMARKS
ALTON          CLOUDY    39  32  75 SE6       30.39S WCI  35
BELLEVILLE     PTSUNNY   39  37  93 S1        30.37S
CAHOKIA*       PTSUNNY   41  33  73 SE3       30.38S
SPARTA*        PTSUNNY   39  32  77 SE3       30.39S
$$

ILZ064>066-069>071-074>076-080>082-084>086-088>090-092>094-031800-
SOUTH-CENTRAL ILLINOIS

CITY           SKY/WX    TMP DP  RH WIND       PRES   REMARKS
CARBONDALE     CLOUDY    41  35  79 NE3       30.39R
CAIRO*         CLOUDY    43  33  67 SE7       30.41R
EFFINGHAM*     PTSUNNY   41  33  73 E5        30.40R
MARION         CLOUDY    43  32  65 SE5       30.39R
CENTRALIA*     CLOUDY    41  35  78 CALM      30.38R
SALEM*         PTSUNNY   42  34  72 CALM      30.38S
METROPOLIS*    MOSUNNY   43  32  65 SE8       30.41R
$$

ILZ067-068-072-073-078-083-087-091-031800-
SOUTHEAST ILLINOIS

CITY           SKY/WX    TMP DP  RH WIND       PRES   REMARKS
LAWRENCEVILLE  CLOUDY    42  29  59 CALM      30.39S
FLORA*         CLOUDY    43  35  74 SE3       30.39S
FAIRFIELD*     CLOUDY    40  35  80 CALM      30.39R
HARRISBURG*    CLOUDY    42  34  74 E5        30.39S
ROBINSON*      CLOUDY    39  29  66 CALM      30.39F
CARMI*         CLOUDY    40  35  81 CALM      30.39S
$$

ABBREVIATIONS USED IN REMARKS
   TC - TEMPERATURE IN CELSIUS
  WCI - WIND CHILL INDEX
   HX - HEAT INDEX
  VSB - VISIBILITY
$$




USA.gov is the U.S. government's official web portal to all federal, state and local government web resources and services.